Location: Bakov nad Jizerou
(50.4784°N, 14.9394°E)
Time: 06:18:04
(UTC+00:00)

Cosmos 1802 Rocket - Visible Passes

Search period start: 26 October 2021 00:00
Search period end: 05 November 2021 00:00
Orbit: 954 x 1012 km, 82.9° (Epoch: 25 October)

Date Brightness Start Highest point End Pass type
(mag) Time Alt. Az. Time Alt. Az. Time Alt. Az.
26 Oct 6.2 04:06:14 10° N 04:11:21 25° ENE 04:16:28 10° ESE visible
26 Oct 4.4 17:42:44 10° SSE 17:48:17 37° E 17:53:52 10° NNE visible
26 Oct 4.9 19:27:58 10° SW 19:33:45 43° WNW 19:39:37 10° N visible
27 Oct 5.4 04:33:27 10° N 04:39:22 41° ENE 04:45:19 10° SE visible
27 Oct 5.5 16:29:24 10° E 16:31:24 12° ENE 16:33:23 10° NE visible
27 Oct 3.8 18:09:37 10° S 18:15:40 65° E 18:21:47 10° NNE visible
27 Oct 5.8 19:56:43 10° WSW 20:01:45 26° WNW 20:06:52 10° N visible
28 Oct 6.7 03:16:51 10° NNE 03:20:22 15° NE 03:23:54 10° E visible
28 Oct 4.5 05:00:54 10° N 05:07:10 69° ENE 05:13:31 10° SSE visible
28 Oct 5.0 16:53:59 10° SE 16:58:24 21° E 17:02:50 10° NE visible
28 Oct 4.0 18:37:07 10° SSW 18:43:15 75° WNW 18:49:28 10° N visible
28 Oct 6.4 20:26:20 10° W 20:29:59 16° WNW 20:33:39 10° NNW visible
29 Oct 6.2 03:43:33 10° N 03:48:37 25° ENE 03:53:43 10° ESE visible
29 Oct 4.4 17:20:05 10° SSE 17:25:35 36° E 17:31:09 10° NNE visible
29 Oct 4.9 19:05:12 10° SW 19:11:02 44° WNW 19:16:57 10° N visible
30 Oct 5.4 04:10:45 10° N 04:16:40 40° ENE 04:22:36 10° SE visible
30 Oct 5.6 16:07:01 10° E 16:08:44 11° ENE 16:10:27 10° ENE visible
30 Oct 3.9 17:46:57 10° S 17:52:58 63° E 17:59:05 10° NNE visible
30 Oct 5.8 19:33:54 10° WSW 19:39:01 27° WNW 19:44:12 10° N visible
31 Oct 6.7 02:54:12 10° NNE 02:57:38 15° NE 03:01:04 10° E visible
31 Oct 4.5 04:38:11 10° N 04:44:29 67° ENE 04:50:50 10° SSE visible
31 Oct 5.1 16:31:23 10° SE 16:35:43 21° E 16:40:06 10° NE visible
31 Oct 4.0 18:14:24 10° SSW 18:20:32 78° W 18:26:47 10° N visible
31 Oct 6.4 20:03:28 10° W 20:07:14 17° WNW 20:11:03 10° NNW visible
01 Nov 6.2 03:20:53 10° N 03:25:54 24° ENE 03:30:57 10° ESE visible
01 Nov 4.0 05:05:49 10° NNW 05:12:07 74° W 05:18:28 10° S visible
01 Nov 4.5 16:57:26 10° SSE 17:02:54 35° E 17:08:26 10° NNE visible
01 Nov 4.9 18:42:26 10° SW 18:48:18 46° WNW 18:54:16 10° N visible
02 Nov 5.4 03:48:03 10° N 03:53:57 39° ENE 03:59:53 10° SE visible
02 Nov 3.9 17:24:15 10° S 17:30:16 61° E 17:36:23 10° NNE visible
02 Nov 5.8 19:11:06 10° WSW 19:16:17 28° WNW 19:21:33 10° N visible
03 Nov 6.8 02:31:34 10° NNE 02:34:54 14° NE 02:38:14 10° E visible
03 Nov 4.5 04:15:29 10° N 04:21:47 65° ENE 04:28:09 10° SSE visible
03 Nov 5.1 16:08:48 10° ESE 16:13:03 20° E 16:17:20 10° NE visible
03 Nov 4.0 17:51:41 10° SSW 17:57:50 80° W 18:04:06 10° N visible
03 Nov 6.4 19:40:36 10° W 19:44:30 17° WNW 19:48:26 10° NNW visible
04 Nov 6.2 02:58:13 10° N 03:03:11 24° ENE 03:08:11 10° ESE visible
04 Nov 4.0 04:43:07 10° NNW 04:49:27 76° W 04:55:50 10° S visible
04 Nov 4.5 16:34:47 10° SSE 16:40:13 34° E 16:45:43 10° NNE visible
04 Nov 4.9 18:19:41 10° SSW 18:25:35 47° WNW 18:31:36 10° N visible
04 Nov 6.9 20:12:32 10° NW 20:12:56 10° NW 20:13:21 10° NW visible
